Overview Statistics Trail Chart Weather Telemetry Raw packets
 

This is the latest recevied weather packets stored in our database for station/object KM5VY. If no packets are shown the sender has not sent any weather packets the latest 10 day(s).

<< 2 3 4 5 6 7 8 >>
Time Temp. Humidity Pressure Rain* Wind** Luminosity Snow
1788642533 31.67° C 31% 1023 hPa 0 mm - - -
1788641932 31.11° C 31% 1023 hPa 0 mm - - -
1788641331 31.67° C 30% 1023 hPa 0 mm - - -
1788640730 32.22° C 31% 1023 hPa 0 mm - - -
1788640130 32.78° C 29% 1023.4 hPa 0 mm - - -
1788639528 32.78° C 30% 1023.4 hPa 0 mm - - -
1788638941 32.78° C 30% 1023.7 hPa 0 mm - - -
1788638326 32.78° C 30% 1023.7 hPa 0 mm - - -
1788637726 32.78° C 30% 1023.7 hPa 0 mm - - -
1788637124 32.22° C 31% 1023.7 hPa 0 mm - - -
1788636523 31.67° C 32% 1024 hPa 0 mm - - -
1788635922 31.67° C 32% 1024 hPa 0 mm - - -
1788635321 31.67° C 32% 1024.4 hPa 0 mm - - -
1788634720 31.67° C 32% 1024.4 hPa 0 mm - - -
1788634119 31.67° C 32% 1024.4 hPa 0 mm - - -
1788633518 31.67° C 33% 1024.7 hPa 0 mm - - -
1788632918 30.56° C 34% 1025.1 hPa 0 mm - - -
1788632316 30.56° C 33% 1025.1 hPa 0 mm - - -
1788631715 30.56° C 35% 1025.1 hPa 0 mm - - -
1788631114 29.44° C 35% 1025.1 hPa 0 mm - - -
1788630513 30° C 36% 1025.4 hPa 0 mm - - -
1788629912 30° C 36% 1025.4 hPa 0 mm - - -
1788629311 30° C 37% 1025.4 hPa 0 mm - - -
1788628710 28.89° C 37% 1025.4 hPa 0 mm - - -
1788628109 28.33° C 39% 1025.4 hPa 0 mm - - -

* Rain latest hour (hover to see other rain measurements)
** Current wind speed in m/s (hover to see current wind gust speed)